RH
96 96 96 91 99 96 97 95 83 44 16 17 14 21 9 7 6 7 6 10 19 22 22 32 41 50 46 42 40 37 36 35
94 97 99 97 97 97 97 89 89 81 59 27 14 14 26 11 11 14 11 24 32 47 52 60 63 57 52 46 40 37 31 28
96 96 96 96 96 95 96 94 70 36 36 47 33 24 20 39 21 32 48 57 63 55 54 44 57 48 43 53 47 39 35 31
96 96 97 95 95 95 83 68 54 48 36 22 18 17 19 25 37 64 58 51 42 47 50 43 56 64 55 26 48 40 33 27
96 96 96 89 51 16 9 10 13 14 20 24 20 33 62 60 58 52 42 29 31 35 40 25 31 44 43 16 27 22 17 18
95 82 76 41 9 10 11 12 18 27 39 43 67 59 57 54 53 55 51 28 16 14 16 16 16 16 15 15 18 20 20 20
58 24 16 12 14 18 28 33 45 63 66 65 61 61 68 60 56 64 49 17 16 17 16 16 17 16 16 17 17 18 20 21
50 56 33 27 26 39 38 47 63 72 77 78 54 59 59 37 38 38 19 17 18 17 17 20 21 22 23 23 23 23 22 23
16 16 18 24 33 46 55 69 71 72 48 44 37 35 34 17 16 16 18 18 21 23 25 27 29 32 33 33 31 29 28 25
18 26 27 45 66 55 65 54 50 34 26 30 32 35 16 16 17 18 23 26 28 30 32 34 36 39 39 37 36 34 30 28
16 17 17 47 62 45 32 42 52 37 40 37 18 16 18 19 22 25 28 29 31 33 37 42 47 47 43 43 40 35 32 34
37 33 21 25 27 55 54 61 37 23 17 18 20 21 23 24 27 29 29 30 33 36 43 48 52 51 50 48 40 37 38 47
19 22 23 30 60 55 44 34 23 19 20 22 23 25 25 29 29 30 31 33 34 37 44 54 56 54 54 51 44 44 54 58
19 21 41 54 83 41 20 25 21 23 23 25 25 24 24 28 28 28 28 27 27 28 30 36 43 52 51 50 49 57 59 54
20 48 71 76 42 26 36 24 23 23 26 24 21 20 23 23 25 26 26 27 26 27 29 29 37 45 48 50 56 60 52 50
22 70 64 52 32 46 28 23 24 24 24 22 20 21 22 23 24 26 27 29 31 34 38 50 87 76 68 57 66 61 52 43
45 43 43 36 29 23 24 25 24 22 21 21 21 22 24 26 27 29 30 31 34 40 43 54 99 100 93 62 61 57 54 48
45 32 28 27 33 22 24 19 20 21 21 22 24 26 28 29 31 33 33 38 56 54 42 45 56 72 62 64 66 60 49 50
32 17 19 17 20 19 22 20 20 19 20 26 30 29 31 36 61 76 48 47 91 100 79 61 92 99 74 78 77 71 68 65
27 25 18 19 20 35 20 16 32 28 23 24 22 35 65 76 84 88 57 75 73 100 80 65 71 75 86 91 93 88 82 86
Wind_Speed
45 44 37 26 36 47 42 33 9 7 5 6 9 16 19 17 15 16 20 21 22 25 27 26 27 26 21 24 24 20 22 24
48 38 48 48 46 42 33 16 11 9 8 9 13 11 13 15 18 22 22 22 25 26 29 26 16 21 24 27 27 25 28 31
39 34 29 27 29 12 10 17 16 10 5 5 8 13 16 20 22 19 19 22 25 27 26 26 25 22 28 33 35 37 39 39
32 31 26 16 12 16 20 16 14 12 11 13 15 15 15 16 17 16 20 24 22 21 24 29 30 31 33 34 34 37 40 40
20 17 16 22 20 15 12 11 10 8 7 10 14 12 14 19 21 12 16 19 25 24 23 26 26 29 33 30 30 32 34 35
23 23 23 19 16 13 11 7 6 7 8 10 12 17 17 16 16 16 17 21 23 20 20 24 24 25 27 28 31 32 33 35
19 16 16 12 11 8 5 5 5 5 9 8 14 15 16 18 22 23 24 21 17 20 22 25 27 30 33 34 35 36 36 35
13 12 11 9 5 3 3 5 5 6 10 16 16 19 20 20 17 20 19 17 20 24 28 29 31 33 35 36 38 39 40 40
10 11 10 8 4 1 3 5 8 12 16 15 17 18 19 19 17 17 19 23 27 30 30 31 32 34 36 39 40 41 43 44
5 6 4 1 2 5 7 11 13 15 17 17 17 17 16 15 17 20 22 26 28 29 31 33 35 36 39 41 44 45 46 45
2 3 4 1 5 10 12 15 15 14 15 15 15 14 17 18 21 23 26 29 31 34 36 37 39 39 41 44 46 47 48 47
7 8 7 7 10 13 14 14 15 14 11 12 16 17 20 23 26 29 33 36 38 40 40 40 41 42 44 47 48 48 48 48
10 12 12 13 11 13 14 15 12 13 15 17 20 24 27 30 34 37 39 41 43 44 44 44 44 45 46 48 49 48 47 47
14 16 14 10 11 13 10 10 14 18 21 26 29 32 34 36 39 41 43 46 47 47 49 50 50 49 50 51 51 49 47 48
16 17 16 11 13 13 12 17 20 26 28 32 35 38 40 42 44 46 47 49 50 51 52 52 52 53 54 54 54 51 50 52
16 14 17 13 14 15 19 21 25 30 33 37 39 43 44 45 48 50 51 51 52 52 52 52 53 56 57 58 56 54 58 59
12 11 11 14 16 19 24 27 31 34 37 40 43 45 47 49 50 51 52 53 54 54 55 53 56 60 63 61 58 60 64 68
10 9 13 16 19 23 27 31 34 38 41 43 45 48 49 50 52 53 54 54 53 54 56 56 56 59 63 62 64 67 70 72
11 15 18 22 25 28 31 34 38 42 45 47 49 51 52 53 53 55 58 59 59 61 62 62 63 65 67 66 69 72 76 79
16 19 23 27 31 33 35 40 42 46 48 51 55 54 51 53 49 58 61 61 57 66 67 65 65 67 66 69 74 77 80 84
Wind_Direction
206 216 242 251 251 243 222 231 189 193 193 195 201 216 230 243 264 283 281 285 292 294 296 300 309 314 313 306 296 306 304 302
226 232 249 232 225 215 211 190 182 159 139 195 214 234 245 269 272 273 281 289 293 299 306 311 319 311 310 306 301 309 305 302
210 216 213 201 204 206 160 127 127 150 178 199 233 247 252 253 268 287 299 296 303 309 313 312 301 303 303 291 295 293 295 294
238 213 214 197 172 136 123 130 148 176 203 223 241 252 270 280 283 291 302 305 315 304 298 295 298 292 305 301 291 293 295 295
203 182 187 117 116 136 152 166 186 212 233 255 260 278 289 301 296 300 326 315 299 291 290 308 304 302 298 300 300 299 300 300
109 111 114 128 143 156 166 182 202 225 242 268 301 302 305 313 288 287 308 306 302 306 306 304 307 307 306 307 303 302 302 301
118 128 132 137 150 142 154 202 239 259 264 295 288 284 308 301 282 289 306 299 299 300 305 309 309 310 306 304 302 302 302 301
108 117 128 139 163 162 203 227 256 281 284 283 291 289 298 297 297 290 294 303 303 305 307 309 308 306 305 304 302 301 302 302
138 143 141 147 159 173 286 284 305 288 297 295 292 296 302 303 306 306 309 306 304 304 303 302 303 305 305 304 304 304 304 301
146 120 99 154 177 326 309 300 286 293 295 295 297 302 297 302 299 299 298 296 296 302 305 307 309 311 309 310 309 307 306 303
90 54 29 342 300 299 300 290 290 299 292 294 293 290 292 289 289 292 296 300 305 307 309 311 311 310 311 310 308 307 305 303
318 340 346 318 302 293 285 298 309 303 296 290 288 291 295 298 303 306 308 309 307 307 309 310 310 309 309 310 307 305 304 301
326 325 323 315 300 290 297 304 305 298 292 289 301 307 310 312 311 312 312 309 309 310 310 308 306 305 305 307 306 304 302 300
320 316 312 308 304 306 297 295 300 305 310 313 314 311 312 314 315 313 310 310 309 309 308 305 303 304 304 304 305 302 299 302
317 314 315 314 314 305 304 315 316 313 314 311 312 313 315 315 312 311 311 309 309 308 307 304 304 307 306 305 304 300 298 300
316 309 310 311 303 301 304 309 311 309 311 311 310 311 312 312 310 309 309 309 307 306 305 305 304 303 306 305 303 300 302 301
305 304 294 301 303 303 304 308 308 308 307 306 308 309 310 308 307 307 305 304 306 307 305 300 295 299 302 304 304 303 303 302
285 287 292 296 299 300 301 302 304 304 303 306 307 305 304 303 303 302 303 304 303 307 307 302 302 304 305 305 304 304 305 305
292 295 296 298 300 298 299 301 302 302 303 304 302 301 301 303 306 307 307 308 301 303 310 305 304 301 304 303 302 302 302 304
296 297 300 298 296 297 302 302 300 304 305 303 304 308 307 307 306 299 304 308 303 299 304 300 300 300 300 300 301 302 304 306